Regional Weather Roundup
Issued by NWS Midland/Odessa, TX

Skip options and go directly to product.
Home | Oldest Version | Previous Version | Current Version | All | Text Only | Save Text | Print | Product List | Glossary Off

Skip product version selection by date and time.   

553
ASUS44 KMAF 290610
RWRMAF
MIDLAND AREA WEATHER ROUNDUP
NATIONAL WEATHER SERVICE MIDLAND TX
1200 AM CST SAT NOV 29 2014

...IN SOUTHWEST TEXAS AND SOUTHEAST NEW MEXICO...

CITY           SKY/WX    TMP DP  RH WIND       PRES   REMARKS
ALPINE         PTCLDY    51  24  34 S3        30.16S
ANDREWS        FAIR      47  31  54 SW9       30.00F
ARTESIA        NOT AVBL
BIG SPRING     CLEAR     54  43  66 S14       30.03F
CARLSBAD       CLEAR     39  26  59 N6        29.98S WCI  35
DRYDEN           N/A     49  43  80 N7        30.06F
FORT STOCKTON  CLEAR     51  34  52 S13       30.04F
GUAD PASS      NOT AVBL
HOBBS          PTCLDY    45  19  36 SW10      30.01S WCI  39
MARFA          PTCLDY    30  18  59 N3        30.15F
MIDLAND AIRPK  CLEAR     54  40  59 S15       30.02S
MIDLAND INTL   CLEAR     51  38  60 S10       30.01F
ODESSA         CLEAR     52  39  61 S15       30.02F
PECOS          PTCLDY    38  23  55 SE3       30.01F
PRESIDIO       FAIR      52  26  36 N10       30.07F
SEMINOLE       CLEAR     42  23  46 CALM      30.00F
SNYDER         CLEAR     49  39  67 S10       29.99F
WINK           PTCLDY    45  26  47 SE6       30.00F
$$
...OTHER STATIONS IN TEXAS...

CITY           SKY/WX    TMP DP  RH WIND       PRES   REMARKS
ABILENE        CLEAR     56  42  59 S17G28    29.99F
AMARILLO       CLEAR     52  23  32 SW18      29.86F
AUSTIN         CLEAR     56  51  84 S13       30.09F
BROWNSVILLE    CLEAR     64  59  83 SE9       30.14F
CORPUS CHRISTI CLEAR     61  58  90 S10       30.12F
DALLAS FTW     PTCLDY    60  46  59 S18G26    29.97S
DEL RIO        CLEAR     53  45  74 E7        30.07F
EL PASO        PTCLDY    42  20  41 CALM      30.07S
HOUSTON INT    CLEAR     60  58  92 S5        30.13F
LUBBOCK        CLEAR     53  21  28 SW12      29.94F
SAN ANGELO     CLEAR     57  44  62 S21G26    30.02F
SAN ANTONIO    CLEAR     59  53  80 S7        30.12F
WACO           CLEAR     56  47  71 S13       30.04F
WICHITA FALLS  NOT AVBL
$$
...OTHER LOCATIONS IN NEW MEXICO...

CITY           SKY/WX    TMP DP  RH WIND       PRES   REMARKS
ALAMAGORDO     PTCLDY    39  14  35 E5        30.08F WCI  36
ALBUQUERQUE    CLEAR     45  19  35 SE7       30.08S
CANNON AFB     PTCLDY    46  22  38 W3        29.98S
CLOVIS         PTCLDY    46  19  34 W13       29.96S
HOLLOMAN AFB   PTCLDY    38  15  40 E5        30.07F WCI  34
ROSWELL        PTCLDY    44  26  49 CALM      29.97F
RUIDOSO        CLEAR     41  16  36 W9        30.15F WCI  35
SANTA FE       CLEAR     41  15  35 CALM      30.09F
TRUTH OR CONSE CLEAR     40  19  43 W6        30.08F WCI  36
TUCUMCARI      CLEAR     53  18  25 SW10      29.91S
$$

USA.gov is the U.S. government's official web portal to all federal, state and local government web resources and services.